Madawaska, ME

8:24 PM EST on February 06, 2016 (GMT -0500)
Northern Aroostook Regional

Weather History for KFVE - February, 2013

Change the Weather History Date:

Tuesday, February 12, 2013

  Actual Average Record
Temperature  
Mean Temperature 30 °F 12 °F  
Max Temperature 33 °F 20 °F - ()
Min Temperature 27 °F 4 °F - ()
Degree Days  
Heating Degree Days 35    
Month to date heating degree days 709  
Since 1 July heating degree days 5816  
Cooling Degree Days 0    
Month to date cooling degree days 0  
Year to date cooling degree days 0  
Moisture  
Dew Point 27 °F    
Average Humidity 91    
Maximum Humidity 100    
Minimum Humidity 81    
Precipitation  
Precipitation 0.06 in 0.02 in - ()
Month to date precipitation 0.12 0.25  
Year to date precipitation 1.10 2.01  
Sea Level Pressure  
Sea Level Pressure 29.44 in    
Wind  
Wind Speed 8 mph (NW)    
Max Wind Speed 22 mph    
Max Gust Speed 31 mph    
Visibility 5 miles    
Events Snow    
T = Trace of Precipitation, MM = Missing Value Source: NWS Daily Summary

Daily Weather History Graph

Daily Weather History Graph

Search for Another Location

Airport or City:

Trip Planner

Search our weather history database for the weather conditions in past years. The results will help you decide how hot, cold, wet, or windy it might be!

Date:

Astronomy

Feb. 12, 2013 Rise Set
Actual Time 6:42 AM EST 4:52 PM EST
Civil Twilight 6:11 AM EST 5:24 PM EST
Nautical Twilight 5:35 AM EST 6:00 PM EST
Astronomical Twilight 4:59 AM EST 6:36 PM EST
Moon 7:24 AM EST (2/12) 8:06 PM EST (2/12)
Length of Visible Light 11h 13m
Length of Day
10h 10m
Waxing Crescent, 7% of the Moon is Illuminated
Feb 12
Waxing Crescent
Feb 17
First Quarter
Feb 25
Full
Mar 4
Last Quarter
Mar 11
New

Hourly Weather History & Observations

Time (EST) Temp. Windchill Dew Point Humidity Pressure Visibility Wind Dir Wind Speed Gust Speed Precip Events Conditions
12:20 AM 28.4 °F 22.2 °F 28.4 °F 100% 29.50 in 2.5 mi SE 5.8 mph - N/A   Overcast
12:25 AM 28.4 °F 23.3 °F 28.4 °F 100% 29.50 in 1.5 mi SE 4.6 mph - N/A   Overcast
12:36 AM 28.4 °F 23.3 °F 28.4 °F 100% 29.49 in 2.0 mi SE 4.6 mph - N/A   Overcast
12:44 AM 28.4 °F 21.2 °F 28.4 °F 100% 29.48 in 5.0 mi SE 6.9 mph - N/A   Overcast
12:53 AM 28.9 °F 21.9 °F 28.0 °F 96% 29.51 in 4.0 mi SE 6.9 mph - N/A   Overcast
1:21 AM 28.4 °F 20.4 °F 26.6 °F 93% 29.46 in 2.5 mi East 8.1 mph - N/A   Overcast
1:53 AM 28.0 °F 21.7 °F 27.0 °F 96% 29.49 in 1.5 mi East 5.8 mph - N/A   Overcast
2:06 AM 28.4 °F 24.6 °F 26.6 °F 93% 29.45 in 1.0 mi East 3.5 mph - N/A   Mist
2:27 AM 28.4 °F 22.2 °F 26.6 °F 93% 29.45 in 0.8 mi ESE 5.8 mph - 0.00 in Snow Light Snow
2:53 AM 28.0 °F 21.7 °F 27.0 °F 96% 29.47 in 0.8 mi ESE 5.8 mph - 0.00 in Snow Light Snow
3:01 AM 28.4 °F 22.2 °F 26.6 °F 93% 29.43 in 1.0 mi ESE 5.8 mph - 0.00 in Snow Light Snow
3:31 AM 28.4 °F 23.3 °F 26.6 °F 93% 29.42 in 1.5 mi East 4.6 mph - 0.01 in Snow Light Snow
3:40 AM 28.4 °F 24.6 °F 26.6 °F 93% 29.41 in 1.2 mi East 3.5 mph - 0.02 in Snow Light Snow
3:53 AM 28.0 °F 21.7 °F 27.0 °F 96% 29.45 in 1.2 mi East 5.8 mph - 0.02 in Snow Light Snow
4:03 AM 28.4 °F 23.3 °F 26.6 °F 93% 29.41 in 1.8 mi ESE 4.6 mph - 0.00 in Snow Light Snow
4:09 AM 28.4 °F 24.6 °F 26.6 °F 93% 29.41 in 1.2 mi East 3.5 mph - 0.00 in Snow Light Snow
4:22 AM 28.4 °F 23.3 °F 26.6 °F 93% 29.41 in 1.5 mi East 4.6 mph - 0.01 in Snow Light Snow
4:31 AM 28.4 °F 24.6 °F 26.6 °F 93% 29.41 in 1.5 mi ESE 3.5 mph - 0.01 in Snow Light Snow
4:40 AM 28.4 °F 22.2 °F 26.6 °F 93% 29.41 in 2.0 mi East 5.8 mph - 0.01 in Snow Light Snow
4:53 AM 28.0 °F 24.2 °F 27.0 °F 96% 29.44 in 2.5 mi East 3.5 mph - 0.01 in Snow Light Snow
4:55 AM 28.4 °F 24.6 °F 26.6 °F 93% 29.40 in 3.0 mi ESE 3.5 mph - 0.00 in Snow Light Snow
5:05 AM 28.4 °F 23.3 °F 26.6 °F 93% 29.40 in 6.0 mi ESE 4.6 mph - 0.00 in   Overcast
5:28 AM 28.4 °F 22.2 °F 26.6 °F 93% 29.40 in 2.5 mi ESE 5.8 mph - 0.00 in Snow Light Snow
5:39 AM 28.4 °F 23.3 °F 26.6 °F 93% 29.39 in 1.8 mi SE 4.6 mph - 0.00 in Snow Light Snow
5:53 AM 28.0 °F 24.2 °F 27.0 °F 96% 29.43 in 3.0 mi SE 3.5 mph - 0.00 in Snow Light Snow
6:20 AM 28.4 °F - 26.6 °F 93% 29.39 in 2.5 mi Calm Calm - 0.00 in Snow Light Snow
6:30 AM 28.4 °F - 26.6 °F 93% 29.39 in 3.0 mi Calm Calm - 0.00 in Snow Light Snow
6:37 AM 28.4 °F - 26.6 °F 93% 29.39 in 3.0 mi Calm Calm - 0.00 in Snow Light Snow
6:44 AM 28.4 °F - 26.6 °F 93% 29.39 in 2.0 mi Calm Calm - 0.00 in Snow Light Snow
6:53 AM 28.0 °F - 27.0 °F 96% 29.42 in 2.0 mi Calm Calm - 0.01 in Snow Light Snow
7:08 AM 28.4 °F - 26.6 °F 93% 29.39 in 2.0 mi Calm Calm - 0.00 in Snow Light Snow
7:16 AM 28.4 °F - 26.6 °F 93% 29.39 in 1.5 mi Calm Calm - 0.00 in Snow Light Snow
7:26 AM 28.4 °F - 26.6 °F 93% 29.39 in 1.2 mi Calm Calm - 0.00 in Snow Light Snow
7:53 AM 28.0 °F 24.2 °F 28.0 °F 100% 29.42 in 1.0 mi SSW 3.5 mph - 0.00 in Snow Light Snow
8:02 AM 28.4 °F 24.6 °F 28.4 °F 100% 29.38 in 0.8 mi South 3.5 mph - 0.01 in Snow Light Snow
8:23 AM 28.4 °F 24.6 °F 28.4 °F 100% 29.38 in 1.2 mi SSW 3.5 mph - 0.01 in Snow Light Snow
8:53 AM 28.9 °F 23.9 °F 28.0 °F 96% 29.41 in 0.8 mi SW 4.6 mph - 0.01 in Snow Light Snow
9:01 AM 28.4 °F 24.6 °F 28.4 °F 100% 29.38 in 1.0 mi SSW 3.5 mph - 0.01 in Snow Light Snow
9:09 AM 28.4 °F - 28.4 °F 100% 29.38 in 1.2 mi Calm Calm - 0.01 in Snow Light Snow
9:17 AM 30.2 °F 26.7 °F 28.4 °F 93% 29.38 in 1.5 mi West 3.5 mph - 0.01 in Snow Light Snow
9:36 AM 30.2 °F 24.3 °F 28.4 °F 93% 29.38 in 1.8 mi West 5.8 mph - 0.01 in Snow Light Snow
9:43 AM 30.2 °F 25.4 °F 28.4 °F 93% 29.38 in 2.5 mi West 4.6 mph - 0.01 in Snow Light Snow
9:51 AM 30.2 °F 25.4 °F 28.4 °F 93% 29.37 in 4.0 mi WNW 4.6 mph - 0.01 in Snow Light Snow
9:53 AM 30.0 °F 24.1 °F 28.0 °F 92% 29.40 in 4.0 mi WNW 5.8 mph - 0.01 in Snow Light Snow
10:35 AM 30.2 °F 22.6 °F 28.4 °F 93% 29.37 in 6.0 mi West 8.1 mph - 0.00 in   Overcast
10:53 AM 32.0 °F 24.2 °F 28.9 °F 88% 29.40 in 10.0 mi West 9.2 mph - 0.00 in   Overcast
11:00 AM 32.0 °F 24.2 °F 28.4 °F 87% 29.37 in 10.0 mi West 9.2 mph - N/A   Overcast
11:53 AM 32.0 °F 24.2 °F 28.0 °F 85% 29.40 in 10.0 mi WNW 9.2 mph - N/A   Overcast
12:27 PM 32.0 °F 24.8 °F 28.4 °F 87% 29.37 in 7.0 mi WNW 8.1 mph - 0.00 in   Overcast
12:37 PM 33.8 °F 25.3 °F 28.4 °F 81% 29.37 in 10.0 mi WNW 11.5 mph - 0.00 in   Overcast
12:53 PM 32.0 °F 23.0 °F 28.0 °F 85% 29.40 in 6.0 mi NW 11.5 mph - 0.00 in   Overcast
1:22 PM 32.0 °F 25.6 °F 28.4 °F 87% 29.38 in 3.0 mi NW 6.9 mph - 0.00 in Snow Light Snow
1:29 PM 32.0 °F 25.6 °F 28.4 °F 87% 29.38 in 3.0 mi NW 6.9 mph - 0.00 in Snow Light Snow
1:43 PM 32.0 °F 24.2 °F 28.4 °F 87% 29.39 in 6.0 mi NW 9.2 mph - 0.00 in Snow Light Snow
1:53 PM 32.0 °F 24.8 °F 28.9 °F 88% 29.42 in 9.0 mi NW 8.1 mph - 0.00 in   Overcast
2:26 PM 32.0 °F 24.2 °F 28.4 °F 87% 29.40 in 10.0 mi NW 9.2 mph - N/A   Overcast
2:53 PM 30.9 °F 21.2 °F 27.0 °F 85% 29.44 in 10.0 mi NW 12.7 mph - N/A   Overcast
3:23 PM 30.2 °F 19.8 °F 26.6 °F 86% 29.42 in 7.0 mi NW 13.8 mph - 0.00 in Snow Light Snow
3:35 PM 30.2 °F 19.3 °F 26.6 °F 86% 29.42 in 7.0 mi NW 15.0 mph - 0.00 in Snow Light Snow
3:53 PM 30.9 °F 20.7 °F 27.0 °F 85% 29.46 in 10.0 mi NW 13.8 mph - 0.00 in   Overcast
4:53 PM 30.0 °F 17.9 °F 26.1 °F 85% 29.47 in 10.0 mi NW 18.4 mph 25.3 mph N/A   Overcast
5:28 PM 28.4 °F 17.5 °F 24.8 °F 86% 29.46 in 10.0 mi NW 13.8 mph 24.2 mph N/A   Overcast
5:53 PM 28.9 °F 18.6 °F 25.0 °F 85% 29.49 in 10.0 mi NNW 12.7 mph 23.0 mph N/A   Overcast
6:53 PM 28.0 °F 17.0 °F 25.0 °F 88% 29.51 in 10.0 mi NNW 13.8 mph 21.9 mph N/A   Overcast
7:53 PM 28.0 °F 16.1 °F 24.1 °F 85% 29.54 in 10.0 mi NW 16.1 mph 26.5 mph N/A   Overcast
8:17 PM 28.4 °F 18.5 °F 24.8 °F 86% 29.51 in 10.0 mi NW 11.5 mph 25.3 mph N/A   Overcast
8:26 PM 26.6 °F 15.2 °F 24.8 °F 93% 29.52 in 10.0 mi NW 13.8 mph - N/A   Overcast
8:53 PM 28.0 °F 18.1 °F 24.1 °F 85% 29.56 in 10.0 mi NW 11.5 mph - N/A   Overcast
9:53 PM 28.0 °F 20.0 °F 24.1 °F 85% 29.58 in 10.0 mi WNW 8.1 mph - N/A   Overcast
10:33 PM 28.4 °F 19.7 °F 24.8 °F 86% 29.55 in 10.0 mi WNW 9.2 mph - N/A   Overcast
10:53 PM 28.0 °F 18.6 °F 23.0 °F 81% 29.59 in 10.0 mi WNW 10.4 mph - N/A   Overcast
11:45 PM 26.6 °F 19.1 °F 23.0 °F 86% 29.57 in 10.0 mi NW 6.9 mph - N/A   Overcast
11:53 PM 27.0 °F 19.5 °F 23.0 °F 85% 29.60 in 10.0 mi WNW 6.9 mph - N/A   Overcast